Change the Weather History Date:

Thursday, August 28, 2014

  Actual Average (KLWS) Record (KLWS)
Temperature  
Mean Temperature 70 °F 71 °F  
Max Temperature 87 °F 86 °F 103 °F (1922)
Min Temperature 52 °F 57 °F 43 °F (1960)
Degree Days  
Heating Degree Days 0 1  
Month to date heating degree days 2  
Since 1 June heating degree days 79  
Since 1 July heating degree days 9  
Cooling Degree Days 6 7  
Month to date cooling degree days 268  
Year to date cooling degree days 698  
Since 1 June cooling degree days 666  
Growing Degree Days 20 (Base 50)    
Moisture  
Dew Point 41 °F    
Average Humidity 39    
Maximum Humidity 65    
Minimum Humidity 14    
Precipitation  
Precipitation 0.00 in 0.02 in 0.21 in (1951)
Month to date precipitation 0.61  
Year to date precipitation 8.45  
Snow  
Snow 0.00 in 0.00 in T in (1927)
Month to date snowfall 0.0  
Since 1 June snowfall 0.0  
Since 1 July snowfall 0.0  
Snow Depth -    
Sea Level Pressure  
Sea Level Pressure 30.08 in    
Wind  
Wind Speed 3 mph (NNE)    
Max Wind Speed 14 mph    
Max Gust Speed 21 mph    
Visibility 10 miles    
Events      
T = Trace of Precipitation, MM = Missing Value Source: NWS Daily Summary

Daily Weather History Graph

Daily Weather History Graph

Search for Another Location

Airport or City:

Trip Planner

Search our weather history database for the weather conditions in past years. The results will help you decide how hot, cold, wet, or windy it might be!

Date:

Astronomy

Aug. 28, 2014 Rise Set
Actual Time 6:00 AM PDT 7:30 PM PDT
Civil Twilight 5:29 AM PDT 8:01 PM PDT
Nautical Twilight 4:51 AM PDT 8:38 PM PDT
Astronomical Twilight 4:10 AM PDT 9:19 PM PDT
Moon 9:08 AM PDT (8/28) 8:43 PM PDT (8/28)
Length of Visible Light 14h 31m
Length of Day
13h 29m
Waxing Crescent, 9% of the Moon is Illuminated
Aug 28
Waxing Crescent
Sep 2
First Quarter
Sep 8
Full
Sep 15
Last Quarter
Sep 23
New

Hourly Weather History & Observations

Time (PDT) Temp. Dew Point Humidity Pressure Visibility Wind Dir Wind Speed Gust Speed Precip Events Conditions
12:15 AM 61.9 °F 40.1 °F 45% 30.08 in 10.0 mi SSW 3.5 mph - N/A   Clear
12:35 AM 63.1 °F 39.6 °F 42% 30.08 in 10.0 mi Calm Calm - N/A   Clear
12:55 AM 62.1 °F 40.6 °F 45% 30.08 in 7.0 mi Calm Calm - N/A   Clear
1:15 AM 60.8 °F 41.9 °F 50% 30.08 in 10.0 mi NE 3.5 mph - N/A   Clear
1:35 AM 58.6 °F 40.3 °F 51% 30.08 in 10.0 mi Calm Calm - N/A   Clear
1:55 AM 60.4 °F 40.1 °F 47% 30.08 in 10.0 mi Calm Calm - N/A   Clear
2:15 AM 60.8 °F 40.1 °F 46% 30.08 in 10.0 mi Calm Calm - N/A   Clear
2:35 AM 60.8 °F 40.5 °F 47% 30.09 in 10.0 mi Calm Calm - N/A   Clear
2:55 AM 60.4 °F 40.5 °F 48% 30.08 in 10.0 mi SE 3.5 mph - N/A   Clear
3:15 AM 58.1 °F 41.0 °F 53% 30.08 in 10.0 mi Calm Calm - N/A   Clear
3:35 AM 56.5 °F 40.8 °F 56% 30.08 in 10.0 mi Calm Calm - N/A   Clear
3:55 AM 56.3 °F 41.0 °F 57% 30.09 in 10.0 mi Calm Calm - N/A   Clear
4:15 AM 56.5 °F 42.8 °F 60% 30.09 in 10.0 mi Calm Calm - N/A   Clear
4:35 AM 57.4 °F 41.2 °F 55% 30.09 in 10.0 mi SSE 3.5 mph - N/A   Clear
4:55 AM 56.3 °F 41.2 °F 57% 30.10 in 10.0 mi Calm Calm - N/A   Clear
5:15 AM 56.7 °F 41.2 °F 56% 30.10 in 10.0 mi Calm Calm - N/A   Clear
5:35 AM 57.4 °F 41.2 °F 55% 30.11 in 10.0 mi Calm Calm - N/A   Clear
5:55 AM 57.2 °F 41.2 °F 55% 30.11 in 10.0 mi Calm Calm - N/A   Clear
6:15 AM 57.0 °F 41.4 °F 56% 30.11 in 10.0 mi Calm Calm - N/A   Clear
6:35 AM 54.3 °F 41.7 °F 62% 30.11 in 10.0 mi Calm Calm - N/A   Clear
6:55 AM 56.5 °F 42.3 °F 59% 30.11 in 10.0 mi Calm Calm - N/A   Clear
7:15 AM 60.1 °F 43.5 °F 54% 30.13 in 10.0 mi Calm Calm - N/A   Clear
7:55 AM 63.7 °F 43.9 °F 48% 30.13 in 7.0 mi Calm Calm - N/A   Clear
8:15 AM 66.4 °F 42.8 °F 42% 30.12 in 10.0 mi Calm Calm - N/A   Clear
8:35 AM 69.4 °F 42.3 °F 37% 30.12 in 10.0 mi NE 3.5 mph - N/A   Clear
8:55 AM 72.0 °F 41.4 °F 33% 30.12 in 10.0 mi Calm Calm - N/A   Clear
9:15 AM 73.6 °F 41.9 °F 32% 30.12 in 10.0 mi NE 5.8 mph - N/A   Clear
9:35 AM 75.0 °F 42.1 °F 31% 30.12 in 10.0 mi NE 4.6 mph - N/A   Clear
9:55 AM 75.6 °F 42.4 °F 31% 30.12 in 10.0 mi Calm Calm - N/A   Clear
10:15 AM 76.6 °F 42.6 °F 30% 30.12 in 10.0 mi Calm Calm - N/A   Clear
10:35 AM 78.4 °F 43.0 °F 28% 30.11 in 10.0 mi WNW 5.8 mph - N/A   Clear
10:55 AM 79.7 °F 43.2 °F 27% 30.11 in 10.0 mi West 8.1 mph - N/A   Clear
11:15 AM 80.6 °F 43.0 °F 26% 30.11 in 10.0 mi West 5.8 mph 16.1 mph N/A   Clear
11:35 AM 81.3 °F 43.0 °F 26% 30.10 in 10.0 mi WNW 6.9 mph - N/A   Clear
11:55 AM 81.7 °F 42.6 °F 25% 30.09 in 10.0 mi West 8.1 mph - N/A   Clear
12:15 PM 82.9 °F 42.3 °F 24% 30.09 in 10.0 mi WNW 11.5 mph 17.3 mph N/A   Clear
12:35 PM 83.5 °F 39.7 °F 21% 30.08 in 10.0 mi West 11.5 mph 18.4 mph N/A   Clear
12:55 PM 85.1 °F 36.7 °F 18% 30.08 in 10.0 mi WSW 9.2 mph 17.3 mph N/A   Clear
1:15 PM 85.1 °F 35.8 °F 17% 30.07 in 10.0 mi WNW 6.9 mph - N/A   Clear
1:35 PM 85.6 °F 33.8 °F 16% 30.06 in 10.0 mi West 6.9 mph 20.7 mph N/A   Clear
1:55 PM 86.4 °F 32.7 °F 15% 30.06 in 10.0 mi WNW 10.4 mph 19.6 mph N/A   Clear
2:15 PM 87.3 °F 32.9 °F 14% 30.05 in 10.0 mi West 10.4 mph 17.3 mph N/A   Clear
2:35 PM 87.4 °F 32.5 °F 14% 30.05 in 10.0 mi WNW 10.4 mph 19.6 mph N/A   Clear
2:55 PM 84.6 °F 34.0 °F 16% 30.05 in 10.0 mi North 9.2 mph - N/A   Clear
3:15 PM 82.2 °F 41.7 °F 24% 30.05 in 10.0 mi NNE 12.7 mph 18.4 mph N/A   Clear
3:35 PM 81.3 °F 43.7 °F 26% 30.05 in 10.0 mi North 13.8 mph 19.6 mph N/A   Clear
3:55 PM 81.0 °F 43.2 °F 26% 30.06 in 10.0 mi North 13.8 mph 19.6 mph N/A   Clear
4:15 PM 80.8 °F 42.1 °F 25% 30.06 in 10.0 mi NE 11.5 mph - N/A   Clear
4:35 PM 81.0 °F 42.1 °F 25% 30.06 in 10.0 mi NNE 9.2 mph - N/A   Clear
4:55 PM 79.3 °F 42.4 °F 27% 30.06 in 10.0 mi North 9.2 mph - N/A   Clear
5:15 PM 79.2 °F 43.2 °F 28% 30.06 in 10.0 mi North 9.2 mph - N/A   Clear
5:35 PM 78.3 °F 42.8 °F 28% 30.06 in 10.0 mi NNE 8.1 mph - N/A   Clear
5:55 PM 77.4 °F 41.5 °F 28% 30.06 in 10.0 mi NNE 8.1 mph - N/A   Clear
6:15 PM 76.3 °F 40.5 °F 28% 30.06 in 10.0 mi NNE 8.1 mph - N/A   Clear
6:35 PM 74.1 °F 40.3 °F 29% 30.06 in 10.0 mi NE 3.5 mph - N/A   Clear
6:55 PM 72.0 °F 40.3 °F 32% 30.06 in 10.0 mi East 4.6 mph - N/A   Clear
7:15 PM 71.4 °F 40.1 °F 32% 30.07 in 10.0 mi NE 5.8 mph - N/A   Clear
7:35 PM 68.2 °F 39.9 °F 36% 30.07 in 10.0 mi East 4.6 mph - N/A   Clear
7:55 PM 67.3 °F 39.6 °F 36% 30.07 in 10.0 mi NE 3.5 mph - N/A   Clear
8:15 PM 65.3 °F 39.6 °F 39% 30.08 in 10.0 mi SE 5.8 mph - N/A   Clear
8:35 PM 64.2 °F 41.0 °F 43% 30.08 in 10.0 mi SE 5.8 mph - N/A   Clear
8:55 PM 63.1 °F 41.7 °F 46% 30.09 in 10.0 mi SSE 6.9 mph - N/A   Clear
9:15 PM 62.6 °F 41.4 °F 46% 30.08 in 10.0 mi SSE 5.8 mph - N/A   Clear
9:35 PM 61.9 °F 41.0 °F 46% 30.08 in 10.0 mi SSE 5.8 mph - N/A   Clear
9:55 PM 61.0 °F 41.2 °F 48% 30.08 in 10.0 mi SSE 5.8 mph - N/A   Clear
10:15 PM 61.2 °F 41.4 °F 48% 30.08 in 10.0 mi Calm Calm - N/A   Clear
10:35 PM 61.2 °F 41.2 °F 48% 30.08 in 10.0 mi Calm Calm - N/A   Clear
10:55 PM 58.1 °F 41.4 °F 54% 30.09 in 10.0 mi Calm Calm - N/A   Clear
11:15 PM 55.4 °F 42.3 °F 61% 30.09 in 10.0 mi Calm Calm - N/A   Clear
11:35 PM 54.3 °F 41.5 °F 62% 30.09 in 10.0 mi SSE 3.5 mph - N/A   Clear
11:55 PM 52.9 °F 41.4 °F 65% 30.08 in 10.0 mi Calm Calm - N/A   Clear